Time,TemperatureF,DewpointF,PressureIn,WindDirection,WindDirectionDegrees,WindSpeedMPH,WindSpeedGustMPH,Humidity,HourlyPrecipIn,Conditions,Clouds,dailyrainin,SoftwareType,DateUTC
2013-08-02 01:12:00,87.0,-99.9,-100.00,West,280,1.0,2.0,-999,-99.99,,,-99.99,,2013-08-02 08:12:00,
2013-08-02 01:22:00,86.0,-99.9,-100.00,North,11,5.0,9.0,-999,-99.99,,,-99.99,,2013-08-02 08:22:00,
2013-08-02 01:44:00,85.0,-99.9,-100.00,South,187,5.0,6.0,-999,-99.99,,,-99.99,,2013-08-02 08:44:00,
2013-08-02 01:54:00,85.0,-99.9,-100.00,South,191,1.0,4.0,-999,-99.99,,,-99.99,,2013-08-02 08:54:00,
2013-08-02 02:02:00,85.0,-99.9,-100.00,South,191,1.0,4.0,-999,-99.99,,,-99.99,,2013-08-02 09:02:00,
2013-08-02 02:23:00,84.0,-99.9,-100.00,NNE,25,7.0,12.0,-999,-99.99,,,-99.99,,2013-08-02 09:23:00,
2013-08-02 02:33:00,84.0,-99.9,-100.00,NNE,25,7.0,12.0,-999,-99.99,,,-99.99,,2013-08-02 09:33:00,
2013-08-02 03:50:00,81.0,-99.9,-100.00,North,353,1.0,6.0,-999,-99.99,,,-99.99,,2013-08-02 10:50:00,
2013-08-02 04:43:00,81.0,-99.9,-100.00,North,353,1.0,6.0,-999,-99.99,,,-99.99,,2013-08-02 11:43:00,
2013-08-02 05:22:00,80.0,-99.9,-100.00,NNE,19,1.0,7.0,-999,-99.99,,,-99.99,,2013-08-02 12:22:00,
2013-08-02 05:33:00,80.0,-99.9,-100.00,NNE,19,1.0,7.0,-999,-99.99,,,-99.99,,2013-08-02 12:33:00,
2013-08-02 06:33:00,79.0,-99.9,-100.00,South,179,6.0,15.0,-999,-99.99,,,-99.99,,2013-08-02 13:33:00,
2013-08-02 06:52:00,79.0,-99.9,-100.00,NNE,13,5.0,7.0,-999,-99.99,,,-99.99,,2013-08-02 13:52:00,
2013-08-02 07:10:00,81.0,-99.9,-100.00,NNW,334,0.0,9.0,-999,-99.99,,,-99.99,,2013-08-02 14:10:00,
2013-08-02 07:12:00,78.0,-99.9,-100.00,South,189,7.0,11.0,-999,-99.99,,,-99.99,,2013-08-02 14:12:00,
2013-08-02 07:23:00,80.0,-99.9,-100.00,SE,139,0.0,7.0,-999,-99.99,,,-99.99,,2013-08-02 14:23:00,
2013-08-02 07:32:00,80.0,-99.9,-100.00,SE,139,0.0,7.0,-999,-99.99,,,-99.99,,2013-08-02 14:32:00,
2013-08-02 07:53:00,81.0,-99.9,-100.00,NNW,334,0.0,9.0,-999,-99.99,,,-99.99,,2013-08-02 14:53:00,
2013-08-02 08:03:00,81.0,-99.9,-100.00,NNW,334,0.0,9.0,-999,-99.99,,,-99.99,,2013-08-02 15:03:00,
2013-08-02 08:22:00,83.0,-99.9,-100.00,South,187,13.0,16.0,-999,-99.99,,,-99.99,,2013-08-02 15:22:00,
2013-08-02 08:32:00,83.0,-99.9,-100.00,South,187,13.0,16.0,-999,-99.99,,,-99.99,,2013-08-02 15:32:00,
2013-08-02 09:12:00,84.0,-99.9,-100.00,SSW,197,9.0,16.0,-999,-99.99,,,-99.99,,2013-08-02 16:12:00,
2013-08-02 09:20:00,86.0,-99.9,-100.00,SW,222,7.0,13.0,-999,-99.99,,,-99.99,,2013-08-02 16:20:00,
2013-08-02 09:53:00,85.0,-99.9,-100.00,SW,227,11.0,15.0,-999,-99.99,,,-99.99,,2013-08-02 16:53:00,
2013-08-02 10:12:00,86.0,-99.9,-100.00,SW,222,7.0,13.0,-999,-99.99,,,-99.99,,2013-08-02 17:12:00,
2013-08-02 11:03:00,88.0,-99.9,-100.00,SW,229,5.0,12.0,-999,-99.99,,,-99.99,,2013-08-02 18:03:00,
2013-08-02 11:20:00,89.0,-99.9,-100.00,SW,229,10.0,10.0,-999,-99.99,,,-99.99,,2013-08-02 18:20:00,
2013-08-02 11:22:00,90.0,-99.9,-100.00,SSW,193,8.0,12.0,-999,-99.99,,,-99.99,,2013-08-02 18:22:00,
2013-08-02 11:32:00,90.0,-99.9,-100.00,SSW,193,8.0,12.0,-999,-99.99,,,-99.99,,2013-08-02 18:32:00,
2013-08-02 11:43:00,90.0,-99.9,-100.00,SSW,193,8.0,12.0,-999,-99.99,,,-99.99,,2013-08-02 18:43:00,
2013-08-02 12:12:00,89.0,-99.9,-100.00,SW,229,10.0,10.0,-999,-99.99,,,-99.99,,2013-08-02 19:12:00,
2013-08-02 14:12:00,94.0,-99.9,-100.00,SW,232,11.0,15.0,-999,-99.99,,,-99.99,,2013-08-02 21:12:00,
2013-08-02 14:22:00,94.0,-99.9,-100.00,SW,232,11.0,15.0,-999,-99.99,,,-99.99,,2013-08-02 21:22:00,
2013-08-02 14:43:00,95.0,-99.9,-100.00,SSW,202,8.0,17.0,-999,-99.99,,,-99.99,,2013-08-02 21:43:00,
2013-08-02 15:00:00,98.0,-99.9,-100.00,SW,217,7.0,13.0,-999,-99.99,,,-99.99,,2013-08-02 22:00:00,
2013-08-02 15:12:00,98.0,-99.9,-100.00,SSE,154,13.0,21.0,-999,-99.99,,,-99.99,,2013-08-02 22:12:00,
2013-08-02 15:22:00,98.0,-99.9,-100.00,SW,220,9.0,14.0,-999,-99.99,,,-99.99,,2013-08-02 22:22:00,
2013-08-02 15:33:00,98.0,-99.9,-100.00,SW,220,9.0,14.0,-999,-99.99,,,-99.99,,2013-08-02 22:33:00,
2013-08-02 15:43:00,98.0,-99.9,-100.00,SW,217,7.0,13.0,-999,-99.99,,,-99.99,,2013-08-02 22:43:00,
2013-08-02 15:52:00,98.0,-99.9,-100.00,SW,217,7.0,13.0,-999,-99.99,,,-99.99,,2013-08-02 22:52:00,
2013-08-02 16:10:00,100.0,-99.9,-100.00,SW,219,5.0,8.0,-999,-99.99,,,-99.99,,2013-08-02 23:10:00,
2013-08-02 16:44:00,99.0,-99.9,-100.00,WSW,238,2.0,9.0,-999,-99.99,,,-99.99,,2013-08-02 23:44:00,
2013-08-02 16:53:00,100.0,-99.9,-100.00,SW,219,5.0,8.0,-999,-99.99,,,-99.99,,2013-08-02 23:53:00,
2013-08-02 17:00:00,100.0,-99.9,-100.00,WSW,238,5.0,11.0,-999,-99.99,,,-99.99,,2013-08-03 00:00:00,
2013-08-02 17:02:00,100.0,-99.9,-100.00,SW,219,5.0,8.0,-999,-99.99,,,-99.99,,2013-08-03 00:02:00,
2013-08-02 17:52:00,100.0,-99.9,-100.00,WSW,238,5.0,11.0,-999,-99.99,,,-99.99,,2013-08-03 00:52:00,
2013-08-02 18:12:00,101.0,-99.9,-100.00,SW,231,5.0,7.0,-999,-99.99,,,-99.99,,2013-08-03 01:12:00,
2013-08-02 18:53:00,101.0,-99.9,-100.00,SSW,213,3.0,9.0,-999,-99.99,,,-99.99,,2013-08-03 01:53:00,
2013-08-02 20:12:00,98.0,-99.9,-100.00,SSW,195,12.0,17.0,-999,-99.99,,,-99.99,,2013-08-03 03:12:00,
2013-08-02 20:22:00,96.0,-99.9,-100.00,SSW,205,10.0,16.0,-999,-99.99,,,-99.99,,2013-08-03 03:22:00,
2013-08-02 20:32:00,96.0,-99.9,-100.00,SSW,205,10.0,16.0,-999,-99.99,,,-99.99,,2013-08-03 03:32:00,
2013-08-02 21:43:00,92.0,-99.9,-100.00,South,184,8.0,16.0,-999,-99.99,,,-99.99,,2013-08-03 04:43:00,
2013-08-02 22:53:00,87.0,-99.9,-100.00,WNW,284,7.0,8.0,-999,-99.99,,,-99.99,,2013-08-03 05:53:00,
2013-08-02 23:02:00,87.0,-99.9,-100.00,WNW,284,7.0,8.0,-999,-99.99,,,-99.99,,2013-08-03 06:02:00,
2013-08-02 23:42:00,86.0,-99.9,-100.00,South,173,8.0,9.0,-999,-99.99,,,-99.99,,2013-08-03 06:42:00,
2013-08-02 23:52:00,86.0,-99.9,-100.00,NW,309,2.0,3.0,-999,-99.99,,,-99.99,,2013-08-03 06:52:00,